Showing default

CARBONITE 1, 40718

Orbit data source: Space-Track

CARBONITE 1, 40718 is a payload satellite owned by SSTL (Astrium) (UK) in SSO that was launched on Fri, 10 Jul 2015 UTC via a PSLV-XL launch vehicle from the Sirharikota (SRI). Payload-class satellites include a variety of spacecraft equipped with specific instruments for various scientific and technological missions. These include communications satellites like Starlink; space stations such as the ISS; scientific satellites like the Hubble; Earth observation satellites from companies like Planet Labs, Umbra, and HawkEye 360; GPS; miniature CubeSats for education and research; and military/defense satellites.

Loading next visibility...
Identifier
40718, 2015-032D
Orbit
SSO
Country
Flag of UKUK
Related business
Manufacturer
SSTL (Astrium)
Mission
Operational Commercial Imaging
Bus & Motor
CBNT, Unknown motor
Mass
91 kg wet, 91 kg dry
Launch date (UTC)
2015-07-10 (11 years ago)
Launch vehicle
PSLV-XL
Launch site
Sirharikota (SRI)
Object type
Payload
Rocket body
Debris
Shape & HBR
Box + Cyl, 0.5 m
Radar Cross Section
0.780 m², Medium (>0.1 m² and < 1m²)

Expand to show TLE details & history
Last TLE update: 7 hours ago

TLE from 7 hours ago
0 CARBONITE 1
1 40718U 15032D   26208.24371505  .00001640  00000-0  20428-3 0  9996
2 40718  97.6527  24.6399 0014968 157.5344 202.6529 14.83699718595289
Epoch: 2026-07-27T05:50Z
TLE epoch observation values (Epoch: 2026-07-27T05:50:56.980Z)
Latitude
-0.00003°
Longitude
-8.02759°
Altitude
630.372 km
Speed
7.538 km/s
True Right ascension
01h 38m 33s
True Declination
0° 00' 00"
Sunlit
Object was in daylight at epoch
Visualization orbit readout
Latitude
Unknown
Longitude
Unknown
Altitude
Unknown
Speed
Unknown
Apparent Right ascension
Unknown
Apparent Declination
Unknown
Sunlit
N/A
Visualization observer readout
Local Sidereal Time
02:23:44
Azimuth
Unknown
Elevation
Unknown
Doppler factor
Unknown
Orbital elements
Apogee altitude
625.162 km
Perigee altitude
604.228 km
Semi-major axis
6,992.832 km
Eccentricity
0.0015
Inclination
97.6527°
RAAN
24.6399°
Arg. of periapsis
157.5344°
True anomaly
202.58695°
Mean anomaly
202.6529°
Eccentric anomaly
202.61992°
Mean motion
3.71162 °/min
Orbital period
96.99 mins
BSTAR
0.00020428
Loading maneuver chart data...
Computing Atmospheric mass density...
Loading historical data...
Loading historical data...
Loading historical data...
Loading historical data...
Loading historical data...
Loading historical data...
Loading historical data...
Other satellites on launch #32 in the year 2015 (2015-07-10 UTC)

Documentation

Showing up to 5 results
|